Regional Weather Roundup
Issued by NWS

Home | Current Version | Previous Version | Text Only | Print | Product List | Glossary Off
Versions: 1 2 3 4 5 6 7 8 9 10 11 12 13 14 15 16 17 18 19 20 21 22 23 24 25 26 27

000
ASUS45 KPSR 231910
RWRAZ

ARIZONA HOURLY REGIONAL WEATHER ROUNDUP
NATIONAL WEATHER SERVICE PHOENIX AZ
1200 PM MST THU FEB 23 2017

NOTE: FAIR INDICATES FEW OR NO CLOUDS BELOW 12,000 FEET WITH NO
SIGNIFICANT WEATHER AND/OR OBSTRUCTIONS TO VISIBILITY.

AZZ001>003-036-232000-
NORTHWEST ARIZONA

CITY           SKY/WX    TMP DP  RH WIND       PRES   REMARKS
BULLHEAD CITY  SUNNY     57  23  26 VRB5      29.98F
KINGMAN        PTSUNNY   49  -4  11 W10G18    29.93F
$$

AZZ004>008-015-016-018-232000-
NORTH CENTRAL ARIZONA

CITY           SKY/WX    TMP DP  RH WIND       PRES   REMARKS
GRAND CANYON   MOSUNNY   33  13  43 W14G23    29.83S WCI  23
WILLIAMS       CLOUDY    34  18  51 W10G17    29.85F WCI  26
PRESCOTT       MOSUNNY   43  17  35 W9        29.88F
FLAGSTAFF      PTSUNNY   32  14  47 W14G22    29.82F WCI  22
PAYSON         SUNNY     45  16  31 W10G18    29.91S
PAGE           SUNNY     44   0  16 W13G29    29.81F
$$

AZZ009>014-017-232000-
NORTHEAST ARIZONA

CITY           SKY/WX    TMP DP  RH WIND       PRES   REMARKS
WINSLOW        SUNNY     45  15  30 VRB7      29.84F
SAINT JOHNS    SUNNY     48  14  25 NW17      29.79F
WINDOW ROCK    SUNNY     38   8  29 W16G35    29.79S WCI  29
SHOW LOW       SUNNY     41   3  20 SW20G28   29.84S
$$

AZZ023-232000-
GREATER PHOENIX AREA

CITY           SKY/WX    TMP DP  RH WIND       PRES   REMARKS
PHOENIX        MOSUNNY   58  21  24 W9        29.93F
BUCKEYE        SUNNY     57  27  30 W5        29.96F
GLENDALE       MOSUNNY   57  27  30 S13       29.96S
LUKE AFB       SUNNY     58  25  27 SW12      29.93F
DEER VALLEY    SUNNY     56  26  31 SW10G18   29.92F
SCOTTSDALE     SUNNY     57  23  26 SW10G17   29.94F
MESA-FALCON    SUNNY    N/A N/A N/A MISG      29.91F
CHANDLER       SUNNY     57  23  26 S12       29.94F
$$

AZZ027-028-232000-
SOUTHWEST MARICOPA COUNTY AND PINAL COUNTY

CITY           SKY/WX    TMP DP  RH WIND       PRES   REMARKS
CASA GRANDE    NOT AVBL
GILA BEND      SUNNY     59  21  23 W12       29.96F
$$

AZZ503-504-507>509-232000-
SOUTHEAST ARIZONA

CITY           SKY/WX    TMP DP  RH WIND       PRES   REMARKS
TUCSON         SUNNY     59  14  17 NW13      29.95F
DAVIS-MONTHAN  SUNNY     57  17  20 W10       29.94F
RYAN FIELD     SUNNY     59  14  17 NW10      29.95F
NOGALES          N/A     64  20  18 W9G21     29.93S
SIERRA VISTA   SUNNY     63  11  13 W25G37    29.91S
DOUGLAS        SUNNY     66  28  24 W24G32    29.88F
SAFFORD        SUNNY     60  18  19 NW15G26   29.86F
$$

AZZ020-021-025-026-031-232000-
SOUTHWEST ARIZONA

CITY           SKY/WX    TMP DP  RH WIND       PRES   REMARKS
YUMA           SUNNY     62  20  19 N7        30.00F
$$

CAZ031-033-041-043-047-048-061-232000-
SOUTHERN CALIFORNIA

CITY           SKY/WX    TMP DP  RH WIND       PRES   REMARKS
DOWNTOWN L.A.  SUNNY     59  26  28 W7        30.08S
L.A. AIRPORT   MOSUNNY   57  25  29 N12G22    30.09F
SAN DIEGO      MOSUNNY   59  33  37 NW12G17   30.10S
BURBANK        SUNNY     54  22  28 NW18      30.07F
ONTARIO        MOSUNNY   53  31  42 SW6       30.06F
RIVERSIDE      SUNNY     55  30  38 SW8       30.06S
PALM SPRINGS   SUNNY     63  30  28 NW13G25   30.02S
EL CENTRO NAS  MOSUNNY   64  26  23 W12       30.02F
IMPERIAL         N/A     63  32  31 NW9G16    30.00
BLYTHE         SUNNY     60  16  18 NW14      30.00F
NEEDLES        SUNNY     60  19  20 N7        29.98S
$$

NVZ020-UTZ003-232000-
SOUTHERN NEVADA-UTAH

CITY           SKY/WX    TMP DP  RH WIND       PRES   REMARKS
LAS VEGAS      MOSUNNY   52   8  17 NW16G22   29.95S
SALT LAKE CITY FLURRIES  31  22  69 W12G23    29.81R WCI  22
$$

NMZ009-TXZ055-232000-
NEW MEXICO-WEST TEXAS

CITY           SKY/WX    TMP DP  RH WIND       PRES   REMARKS
ALBUQUERQUE    MOSUNNY   52   9  17 W23G35    29.73F
EL PASO        MOSUNNY   70  20  15 W41G51    29.76F
$$


........................KEY........................
SKY/WX - SKY CONDITION/WEATHER
TMP    - TEMPERATURE IN FAHRENHEIT
DP     - DEW POINT IN FAHRENHEIT
RH     - RELATIVE HUMIDITY IN PERCENT
WIND   - DIRECTION AND SPEED IN MILES PER HOUR (MPH)
VRB    - VARIABLE WIND DIRECTION
PRES   - MEAN SEA LEVEL PRESSURE IN INCHES OF MERCURY
         F - FALLING PRESSURE   R - RISING PRESSURE
         S - STEADY PRESSURE
VSB    - VISIBILITY IN MILES
HX     - HEAT INDEX IN FAHRENHEIT
WCI    - WIND CHILL INDEX IN FAHRENHEIT
TC     - TEMPERATURE IN CELSIUS WHICH IS ALSO KNOWN AS
         TEMPERATURE IN CENTIGRADE
AFB    - AIR FORCE BASE
         LUKE AFB IS LUKE AIR FORCE BASE
         DAVIS-MONTHAN IS DAVIS-MONTHAN AIR FORCE BASE
NAS    - NAVAL AIR STATION
         EL CENTRO NAS IS EL CENTRO NAVAL AIR STATION
N/A    - NOT AVAILABLE





USA.gov is the U.S. government's official web portal to all federal, state and local government web resources and services.